Location: Kelshall
(52.0000°N, 0.0500°W)
Time: 07:27:00
(UTC+00:00)

Meteor 1-15 Rocket - Pass Details

Date: 24 January 2021
Orbit: 840 x 907 km, 81.2° (Epoch: 24 February)

Event Time Altitude Azimuth Distance (km) Brightness Sun altitude
Exits shadow 05:33:24 17° 335° (NNW) 2,091 6.0 -20.9°
Drops below altitude 10° 05:35:17 10° 351° (N) 2,531 6.5 -20.6°
Sets 05:38:24 0° 7° (N) 3,487 7.4 -20.1°
